Flag for U.S.A. Weather past 2 weeks in Syracuse, New York, U.S.A.

Now
85 °F

Broken clouds.


Feels Like: 84 °F
Forecast: 60 / 89 °F
Wind: 9 mph from Southwest

Location: Syracuse Hancock International Airport

Current Time: May 25, 2015 at 5:54:03 PM

Latest Report: May 25, 2015 at 4:54 PM


Visibility: 10 mi

Pressure: 30.00 "Hg

Humidity: 39%

Dew point: 57 °F

Location of SyracuseLocation

Historic Weather in Syracuse — Graph

°F

Syracuse temperature yesterday

Maximum temperature yesterday: 79 °F (at 2:54 PM)
Minimum temperature yesterday: 48 °F (at 4:54 AM)
Average temperature yesterday: 66 °F

Past Weeks' High & Low Weather Summary

 TemperatureHumidityPressure
High87 °F (May 11, 2:54 PM)100% (May 16, 5:54 AM)30.46 "Hg (May 16, 5:54 AM)
Low35 °F (May 23, 5:54 AM)22% (May 14, 5:54 PM)29.77 "Hg (May 12, 5:54 AM)
Average61 °F63%30.07 "Hg
* Reported May 10 3:54 PM — May 25 3:54 PM, Syracuse, Weather by CustomWeather, © 2015

Note: Actual official high and low records may vary slightly from our data, if they occured in-between our weather recording intervals... More about our weather records

Advertising

Syracuse weather history for previous 24 hours

 ConditionsComfort  
Time TempWeatherWind HumidityBarometerVisibility
3:54 PM
Mon, May 25
84 °FPartly sunny.13 mph36%30.01 "Hg10 mi
2:54 PM87 °FBroken clouds.10 mph35%30.02 "Hg10 mi
1:54 PM85 °FScattered clouds.10 mph36%30.04 "Hg10 mi
12:54 PM82 °FBroken clouds.No wind41%30.07 "Hg10 mi
11:54 AM77 °FBroken clouds.6 mph48%30.10 "Hg10 mi
10:54 AM73 °FMore clouds than sun.9 mph51%30.13 "Hg10 mi
9:54 AM67 °FCloudy.6 mph68%30.16 "Hg10 mi
8:54 AM67 °FMostly cloudy.6 mph63%30.17 "Hg10 mi
7:54 AM61 °FMostly cloudy.7 mph75%30.17 "Hg10 mi
6:54 AM60 °FLight rain. Overcast.5 mph78%30.18 "Hg10 mi
5:54 AM59 °FLight rain. Overcast.6 mph84%30.17 "Hg10 mi
4:54 AM61 °FLight rain. Overcast.6 mph70%30.17 "Hg10 mi
3:54 AM62 °FLight rain. Overcast.3 mph65%30.15 "Hg10 mi
2:54 AM65 °FMostly cloudy.3 mph52%30.14 "Hg10 mi
1:54 AM63 °FMostly cloudy.5 mph56%30.14 "Hg10 mi
12:54 AM65 °FOvercast.5 mph51%30.15 "Hg10 mi
11:54 PM
Sun, May 24
65 °FMostly cloudy.5 mph51%30.16 "Hg10 mi
10:54 PM64 °FMostly cloudy.5 mph52%30.15 "Hg10 mi
9:54 PM67 °FPartly cloudy.No wind44%30.16 "Hg10 mi
8:54 PM71 °FMore clouds than sun.7 mph36%30.16 "Hg10 mi
7:54 PM73 °FMostly cloudy.6 mph34%30.16 "Hg10 mi
6:54 PM77 °FSunny.9 mph26%30.15 "Hg10 mi
5:54 PM77 °FMostly cloudy.8 mph26%30.16 "Hg10 mi
Weather by CustomWeather, © 2015

See weather overviewHow to use our weather pages